| time (UTC) | temp C | wind direction | speed KPH | gust KPH | rain 1hr cm | rain 24hr cm | rain mn cm | humidity % | barometer mb |
| 20260502190111 | 23 | 59 | 1.6 | 8.0 | 0.00 | 2.34 | 0.00 | 45 | 1018.0 |
| 20260502184604 | 23 | 355 | 1.6 | 12.9 | 0.00 | 2.62 | 0.00 | 46 | 1018.2 |
| 20260502183111 | 23 | 324 | 0.0 | 8.0 | 0.00 | 2.62 | 0.00 | 52 | 1018.4 |
| 20260502181556 | 22 | 10 | 1.6 | 8.0 | 0.00 | 2.62 | 0.00 | 46 | 1018.6 |
| 20260502163048 | 21 | 360 | 1.6 | 8.0 | 0.00 | 3.28 | 0.00 | 56 | 1019.2 |
| 20260502161538 | 20 | 84 | 1.6 | 8.0 | 0.00 | 3.28 | 0.00 | 58 | 1019.1 |
| 20260502151522 | 17 | 84 | 1.6 | 8.0 | 0.00 | 3.38 | 0.00 | 75 | 1018.9 |
| 20260502123054 | 11 | 176 | 0.0 | 3.2 | 0.00 | 6.78 | 0.00 | 85 | 1017.1 |
| 20260502121554 | 11 | 271 | 0.0 | 1.6 | 0.00 | 6.78 | 0.00 | 85 | 1017.0 |
| 20260502114551 | 11 | 336 | 0.0 | 1.6 | 0.00 | 7.59 | 0.00 | 85 | 1016.7 |
| 20260502113046 | 11 | 302 | 0.0 | 1.6 | 0.00 | 7.59 | 0.00 | 85 | 1016.5 |
| 20260502111549 | 11 | 294 | 0.0 | 3.2 | 0.00 | 7.59 | 0.00 | 85 | 1016.4 |
| 20260502110043 | 11 | 325 | 0.0 | 1.6 | 0.00 | 7.59 | 0.00 | 85 | 1016.2 |
| 20260502104542 | 11 | 325 | 0.0 | 4.8 | 0.00 | 8.20 | 0.00 | 85 | 1016.0 |
| 20260502103043 | 11 | 260 | 0.0 | 3.2 | 0.00 | 8.20 | 0.00 | 85 | 1016.0 |
| 20260502101545 | 11 | 317 | 0.0 | 1.6 | 0.00 | 8.20 | 0.00 | 85 | 1015.8 |
| 20260502091528 | 11 | 316 | 0.0 | 3.2 | 0.00 | 9.30 | 0.00 | 85 | 1014.8 |
| 20260502071519 | 12 | 36 | 0.0 | 3.2 | 0.00 | 11.25 | 0.00 | 85 | 1014.7 |
| 20260502070017 | 12 | 293 | 0.0 | 3.2 | 0.00 | 11.25 | 0.00 | 85 | 1014.5 |
| 20260502064516 | 12 | 316 | 0.0 | 3.2 | 0.00 | 11.46 | 0.00 | 85 | 1014.3 |
| 20260502063025 | 12 | 20 | 0.0 | 6.4 | 0.00 | 11.46 | 0.00 | 85 | 1014.3 |
| 20260502061516 | 12 | 348 | 0.0 | 6.4 | 0.00 | 11.46 | 0.00 | 85 | 1014.3 |
| 20260502060014 | 12 | 336 | 0.0 | 4.8 | 0.00 | 11.46 | 0.00 | 85 | 1014.3 |
| 20260502054514 | 12 | 24 | 0.0 | 6.4 | 0.00 | 12.29 | 0.00 | 85 | 1014.1 |
| 20260502053010 | 12 | 327 | 0.0 | 4.8 | 0.00 | 12.29 | 0.00 | 85 | 1014.3 |
| 20260502051509 | 12 | 327 | 0.0 | 8.0 | 0.00 | 12.29 | 0.00 | 85 | 1014.3 |
| 20260502050007 | 12 | 327 | 0.0 | 8.0 | 0.00 | 12.29 | 0.00 | 85 | 1014.2 |
| 20260502044505 | 13 | 5 | 1.6 | 9.7 | 0.00 | 12.29 | 12.29 | 85 | 1014.0 |
| 20260502043004 | 13 | 360 | 1.6 | 4.8 | 0.00 | 12.29 | 12.29 | 85 | 1013.9 |
| 20260502041503 | 13 | 5 | 1.6 | 17.7 | 0.00 | 12.29 | 12.29 | 85 | 1014.3 |
| 20260502040002 | 13 | 342 | 0.0 | 3.2 | 0.00 | 12.29 | 12.29 | 85 | 1014.2 |
| 20260502034600 | 13 | 78 | 1.6 | 8.0 | 0.00 | 12.29 | 12.29 | 85 | 1014.0 |
| 20260502033107 | 13 | 279 | 1.6 | 8.0 | 0.05 | 12.29 | 12.29 | 85 | 1013.7 |
| 20260502031555 | 13 | 336 | 1.6 | 4.8 | 0.13 | 12.29 | 12.29 | 85 | 1013.5 |
| 20260502030056 | 13 | 5 | 1.6 | 8.0 | 0.20 | 12.29 | 12.29 | 85 | 1012.9 |
| 20260502024554 | 13 | 329 | 1.6 | 6.4 | 0.28 | 12.34 | 12.29 | 85 | 1012.7 |
| 20260502023054 | 13 | 355 | 0.0 | 6.4 | 0.38 | 12.29 | 12.27 | 85 | 1012.7 |
| 20260502021549 | 13 | 66 | 0.0 | 3.2 | 0.36 | 12.19 | 12.19 | 85 | 1012.8 |
| 20260502020053 | 13 | 271 | 0.0 | 3.2 | 0.30 | 12.14 | 12.09 | 85 | 1012.5 |
| 20260502014544 | 13 | 86 | 0.0 | 4.8 | 0.25 | 12.06 | 12.04 | 85 | 1012.2 |
| 20260502013043 | 13 | 355 | 1.6 | 8.0 | 0.15 | 11.91 | 11.89 | 85 | 1011.6 |
| 20260502011541 | 14 | 262 | 1.6 | 6.4 | 0.23 | 11.86 | 11.84 | 85 | 1012.1 |
| 20260502010039 | 15 | 304 | 0.0 | 9.7 | 0.28 | 11.84 | 11.81 | 85 | 1010.7 |
| 20260502004637 | 15 | 29 | 0.0 | 3.2 | 0.28 | 11.81 | 11.76 | 86 | 1010.6 |
| 20260502003038 | 15 | 335 | 0.0 | 6.4 | 0.30 | 11.76 | 11.73 | 85 | 1011.2 |
| 20260502001536 | 15 | 355 | 0.0 | 3.2 | 0.33 | 11.61 | 11.56 | 85 | 1010.8 |
| 20260502000036 | 15 | 14 | 0.0 | 8.0 | 0.76 | 11.56 | 11.53 | 85 | 1010.5 |
| 20260501234536 | 15 | 326 | 1.6 | 8.0 | 0.71 | 11.51 | 11.46 | 85 | 1010.0 |
| 20260501233035 | 15 | 313 | 0.0 | 11.3 | 0.66 | 11.46 | 11.43 | 85 | 1009.7 |
| 20260501231550 | 15 | 179 | 0.0 | 4.8 | 0.46 | 11.25 | 11.23 | 85 | 1010.4 |
| 20260501230032 | 15 | 289 | 1.6 | 8.0 | 0.00 | 10.79 | 10.77 | 85 | 1010.3 |
| 20260501224531 | 15 | 283 | 0.0 | 12.9 | 0.03 | 10.79 | 10.77 | 85 | 1008.5 |
| 20260501223051 | 15 | 15 | 1.6 | 6.4 | 0.05 | 10.79 | 10.77 | 85 | 1008.6 |
| 20260501221529 | 15 | 26 | 1.6 | 9.7 | 0.08 | 10.79 | 10.77 | 85 | 1009.5 |
| 20260501220027 | 15 | 346 | 0.0 | 3.2 | 0.13 | 10.79 | 10.77 | 85 | 1010.2 |
| 20260501214526 | 15 | 5 | 1.6 | 6.4 | 0.18 | 10.77 | 10.74 | 85 | 1009.9 |
| 20260501213025 | 16 | 309 | 0.0 | 3.2 | 0.28 | 10.74 | 10.72 | 85 | 1009.8 |
| 20260501211525 | 16 | 321 | 1.6 | 4.8 | 0.33 | 10.72 | 10.69 | 85 | 1008.1 |
| 20260501210024 | 16 | 5 | 0.0 | 4.8 | 0.33 | 10.67 | 10.64 | 85 | 1008.2 |
| 20260501204526 | 16 | 271 | 0.0 | 8.0 | 0.30 | 10.59 | 10.57 | 85 | 1008.8 |
| 20260501203021 | 16 | 185 | 0.0 | 6.4 | 0.23 | 10.46 | 10.44 | 86 | 1008.7 |
| 20260501201521 | 16 | 20 | 3.2 | 9.7 | 0.18 | 10.36 | 10.34 | 85 | 1008.6 |
| 20260501200020 | 16 | 298 | 0.0 | 8.0 | 0.33 | 10.34 | 10.29 | 85 | 1008.0 |
| 20260501194520 | 16 | 355 | 0.0 | 3.2 | 0.36 | 10.29 | 10.26 | 85 | 1008.1 |
| 20260501193021 | 16 | 254 | 0.0 | 4.8 | 0.36 | 10.19 | 10.19 | 85 | 1008.2 |
| 20260501191518 | 16 | 263 | 0.0 | 3.2 | 0.36 | 10.19 | 10.16 | 85 | 1008.3 |